Regional Weather Roundup
Issued by NWS Charleston, SC

Current Version | Previous Version | Text Only | Print | Product List | Glossary Off
Versions: 1 2 3 4 5 6 7 8 9 10 11 12 13 14 15 16 17 18 19 20 21 22 23 24 25 26 27 28 29 30 31 32 33 34 35 36 37 38 39 40 41 42 43 44 45 46 47 48 49 50

000
ASUS42 KCHS 231512
RWRCHS

Regional Weather Roundup
National Weather Service Charleston SC
1000 AM EST TUE JAN 23 2018

NOTE: "fair" indicates few or no clouds below 12,000 feet with no
significant weather and/or obstructions to visibility.

Not all stations are quality controlled. Use data with caution,
especially dewpoint observations.

SCZ027-030-031-034>040-042>050-231600-
...Southeast South Carolina...

CITY           SKY/WX    TMP DP  RH WIND       PRES   REMARKS
N Charleston   CLOUDY    65  62  90 SW13      29.95R
Waterfront Prk   N/A     61  61 100 SW8G15    29.80R
Mount Pleasant CLOUDY    64  63  94 SW10      29.95S
Johns Island   CLOUDY    63  63 100 SW10G21   29.96S
Pinopolis        N/A     64  63  94 SW14      29.83R
Moncks Corner  CLOUDY    64  63  94 SW13      29.93S
Summerville    CLOUDY    64  63  94 S8        29.94S
Beaufort MCAS  CLOUDY    66  64  93 S8        29.96R
Beaufort Arpt  CLOUDY    63  61  94 SW7       29.96S FOG
Hilton Head Is PTSUNNY   64  61  88 SW12      29.97S
Walterboro     CLOUDY    66  63  88 SW8G17    29.95R
Allendale      CLOUDY    68  63  83 SW9G16    29.92S

...Southern Midlands and Pee Dee...

CITY           SKY/WX    TMP DP  RH WIND       PRES   REMARKS
Georgetown     CLOUDY    64  64 100 SW16G26   29.94R
Kingstree      CLOUDY    66  63  88 S10G17    29.89S
Orangeburg     CLOUDY    68  61  78 SW17      29.90R
Barnwell         N/A     68  63  83 SW14      29.92R
Aiken          CLOUDY    57  45  62 W15       29.97R
Manning        CLOUDY    68  59  73 MISG      29.91R
Columbia       PTSUNNY   66  60  81 W16G25    29.89R
Sumter         PTSUNNY   67  60  77 SW17G32   29.86R
Florence       CLOUDY    68  63  84 SW16      29.87R
Myrtle Beach   CLOUDY    62  60  93 S8        29.92R
N Myrtle Beach CLOUDY    57  56  96 SW16      29.91S FOG

$$

GAZ063-065-086>088-099>101-113>116-118-119-134>141-150-231600-
...Southeast Georgia...

CITY           SKY/WX    TMP DP  RH WIND       PRES   REMARKS
Savannah Arpt  CLOUDY    68  64  87 SW10      29.97R
Hunter AAF     CLOUDY    68  63  85 SW8       29.94S
Fort Stewart   CLOUDY    69  62  80 SW7       29.95S
Statesboro     CLOUDY    67  61  80 W9G17     29.96R
Sylvania       CLOUDY    67  65  91 W8G16     29.96R
Claxton        CLOUDY    69  64  86 SW9       29.97R

...CSRA, Central and far Southeast Georgia...

CITY           SKY/WX    TMP DP  RH WIND       PRES   REMARKS
Thomson        FAIR      57  40  52 NW12      30.01R
Augusta-Bush   PTSUNNY   63  53  70 NW16      29.94R
Augusta-Daniel PTSUNNY   62  38  40 W9G23     29.96R
Swainsboro     CLOUDY    61  43  51 NW14G23   30.00R
Vidalia        CLOUDY    64  57  77 W10G24    29.99R
Eastman        PTSUNNY   60  19  20 W9G18     30.05R
Hazlehurst     PTSUNNY   64  46  52 NW6       30.00R
Alma           CLOUDY    67  63  87 SW12      29.99R
Waycross       CLOUDY    68  64  89 W10       30.00R
Jesup          NOT AVBL
Baxley         CLOUDY    64  64 100 W5        29.98S
Brunswick      CLOUDY    68  63  83 SW16      30.00R
Saint Simons   CLOUDY    66  65  96 SW13      29.99S

$$

SCZ027-028-034-036>038-045-046-048>050-GAZ119-141-231600-
...Lake and Supplemental Coastal Observations...

STATION/POSITION TIME  TEMP    WIND        PRES    WAVE   SWELL
                       AIR SEA DIR/SP/G            HT/PER HT/PER/DIR
                 (UTC) (F)     (DEG/KT/KT) (MB)    (FT/S) (FT/S/D)
Winyah Bay       NOT AVBL
Lake Murray      1420   63     270/ 17/ 21 1010.8R
ACE Basin NERRS  1345   59        CALM     1014.0
Fort Pulaski     1448   59 48  210/  6/  9 1015.1R
Sapelo Island    1400   64     200/  9     1015.0

$$

ANZ835-935-AMZ111-154-330-350-352-354-370-450-454-472-231600-
...C-MAN and Buoy Observations...

STATION/POSITION TIME  TEMP    WIND        PRES    WAVE   SWELL
                       AIR SEA DIR/SP/G            HT/PER HT/PER/DIR
                 (UTC) (F)     (DEG/KT/KT) (MB)    (FT/S) (FT/S/D)
Buoy 41004       1450   68 69  230/ 23/ 31 1014.3R   6/ 7
Buoy 41008       1450   56 51  180/ 12/ 14 1015.1R   4/ 6   2/100/ 6
Folly Beach CMAN 1400   56     220/ 15/ 18 1014.7R
Capers Nearshore 1408   54 53  230/ 17/ 23 1013.3R
Fripp Nearshore  1408   50 48  220/ 12/ 17 1013.3R


STATION/POSITION TIME  TEMP    WIND        PRES    WAVE   SWELL
                       AIR SEA DIR/SP/G            HT/PER HT/PER/DIR
                 (UTC) (F)     (DEG/KT/KT) (MB)    (FT/S) (FT/S/D)
5E St. Marys GA  1430      51                N/A     3/ 6
Frying Pan Buoy  1450   68 65  230/ 19/ 25 1014.0R   8/ 7
Buoy 41025       1500   72 70  190/ 27/ 35 1012.9
Cape Lookout NC  1400          190/ 17/ 19 1013.0F
Buoy 41002       1450   71 70  170/ 17/ 21 1018.9S   6/ 6   2/110/10
Buoy 41010       NOT AVBL
St Augustine FL  1500   69 53  230/  8/ 12 1017.1R


$$




USA.gov is the U.S. government's official web portal to all federal, state and local government web resources and services.